This demonstration page uses our WeatherBlox Daily Observations layout. Learn more.

38.88101, -77.10428

Hourly Observations for August 15, 2018

Temp ( °F °C ) Dew Point ( °F °C ) Humidity (%) Winds ( mph kmh ) Pressure ( in mb ) Visibility ( mi km ) Precip ( " mm )
12:52 am 00:52 Cloudy 76 24.4 67 19.4 74 74 SW 6 9 29.98 1015 10 16.0934 0 0
1:52 am 01:52 Cloudy 75 23.9 67 19.4 76 76 SSW 5 7 29.97 1015 10 16.0934 0 0
2:52 am 02:52 Partly Cloudy 74 23.3 66 18.9 76 76 S 6 9 29.97 1015 10 16.0934 0 0
3:52 am 03:52 Mostly Clear 73 22.8 66 18.9 79 79 S 5 7 29.97 1015 10 16.0934 0 0
4:52 am 04:52 Mostly Clear 74 23.3 65 18.3 74 74 Calm 29.97 1015 10 16.0934 0 0
5:52 am 05:52 Clear 73 22.8 65 18.3 76 76 SSW 3 6 29.98 1015 10 16.0934 0 0
6:52 am 06:52 Partly Cloudy 73 22.8 65 18.3 76 76 Calm 29.99 1016 10 16.0934 0 0
7:52 am 07:52 Partly Cloudy 76 24.4 66 18.9 72 72 W 5 7 30 1016 10 16.0934 0 0
8:52 am 08:52 Partly Cloudy 80 26.7 65 18.3 60 60 NW 9 15 30.02 1017 10 16.0934 0 0
9:52 am 09:52 Partly Cloudy 83 28.3 66 18.9 57 57 NW 9 15 30.03 1017 10 16.0934 0 0
10:52 am 10:52 Partly Cloudy 85 29.4 67 19.4 55 55 VRB 7 11 30.04 1017 10 16.0934 0 0
11:52 am 11:52 Partly Cloudy 87 30.6 67 19.4 51 51 VRB 5 7 30.04 1017 10 16.0934 0 0
12:52 pm 12:52 Mostly Sunny 89 31.7 67 19.4 48 48 VRB 7 11 30.02 1017 10 16.0934 0 0
1:52 pm 13:52 Partly Cloudy 90 32.2 64 17.8 42 42 W 10 17 30.02 1017 10 16.0934 0 0
2:52 pm 14:52 Mostly Cloudy 91 32.8 62 16.7 38 38 W 12 19 30.01 1016 10 16.0934 0 0
3:52 pm 15:52 Mostly Cloudy 90 32.2 63 17.2 41 41 WNW 12 19 30 1016 10 16.0934 0 0
4:52 pm 16:52 Partly Cloudy 89 31.7 65 18.3 45 45 NNW 10 17 30.01 1016 10 16.0934 0 0
5:52 pm 17:52 Mostly Sunny 88 31.1 65 18.3 46 46 NNW 14 22 30.01 1016 10 16.0934 0 0
6:52 pm 18:52 Mostly Sunny 88 31.1 65 18.3 46 46 NNW 10 17 30.01 1016 10 16.0934 0 0
7:52 pm 19:52 Partly Cloudy 87 30.6 65 18.3 48 48 WNW 5 7 30.02 1017 10 16.0934 0 0
8:52 pm 20:52 Partly Cloudy 85 29.4 66 18.9 53 53 W 6 9 30.03 1017 10 16.0934 0 0
9:52 pm 21:52 Mostly Cloudy 84 29 66 19 55 55 W 5 7 N/A 10 16.0934 0 0
10:52 pm 22:52 Mostly Cloudy 82 28 66 19 58 58 WSW 7 11 N/A 10 16.0934 0 0
11:52 pm 23:52 Mostly Cloudy 80 26.6 69 20.6 70 70 Calm 30.05 1018 10 16.0934 0 0

Powered by AerisWeather